EHI
0 0 0 0 0 0 2 4 5 6 4 1 0 0 0 0 0 0 0 0 0 0 0 0 0 0 0 0 0 0 0 0 0 0 0 0 0 0 0 0 0 0 0
0 0 0 0 0 2 4 8 10 10 7 2 0 0 0 0 0 0 0 0 0 0 0 0 0 0 0 0 0 0 0 0 0 0 0 0 0 0 0 0 0 0 0
0 0 1 2 3 6 12 20 24 20 12 5 1 0 0 0 0 0 0 0 0 0 0 0 0 0 0 0 0 0 0 0 0 0 0 0 0 0 0 0 0 0 0
1 1 3 6 10 16 26 38 42 31 17 7 2 0 0 0 0 0 0 0 0 0 0 0 0 0 0 0 0 0 0 0 0 0 0 0 0 0 0 0 0 0 0
1 2 5 11 19 29 41 51 49 34 18 7 2 0 0 0 0 0 0 0 0 0 0 0 0 0 0 0 0 0 0 0 0 0 0 0 0 0 0 0 0 0 0
1 2 6 14 23 33 42 46 39 25 13 4 1 0 0 0 0 0 0 0 0 0 0 0 0 0 0 0 0 0 0 0 0 0 0 0 0 0 0 0 0 0 0
1 3 6 11 16 22 27 26 20 12 6 2 0 0 0 0 0 0 0 0 0 0 0 0 0 0 0 0 0 0 0 0 0 0 0 0 0 0 0 0 0 0 0
1 2 4 6 7 10 11 9 6 4 2 1 0 0 0 0 0 0 0 0 0 0 0 0 0 0 0 0 0 0 0 0 0 0 0 0 0 0 0 0 0 0 0
0 1 2 3 4 4 4 3 2 1 1 0 0 0 0 0 0 0 0 0 0 0 0 0 0 0 0 0 0 0 0 0 0 0 0 0 0 0 0 0 0 0 0
0 0 0 1 1 1 1 2 1 0 0 0 0 0 0 0 0 0 0 0 0 0 0 0 0 0 0 0 0 0 0 0 0 0 0 0 0 0 0 0 0 0 0
0 0 0 0 0 0 0 0 0 0 0 0 0 0 0 0 0 0 0 0 0 0 0 0 0 0 0 0 0 0 0 0 0 0 0 0 0 0 0 0 0 0 0
0 0 0 0 0 0 0 0 0 0 0 0 0 0 0 0 0 0 0 0 0 0 0 0 0 0 0 0 0 0 0 0 0 0 0 0 0 0 0 0 0 0 0
0 0 0 0 0 0 0 0 0 0 0 0 0 0 0 0 0 0 0 0 0 0 0 0 0 0 0 0 0 0 0 0 0 0 0 0 0 0 0 0 0 0 0
0 0 0 0 0 0 0 0 0 0 0 0 0 0 1 1 1 0 0 0 0 0 0 0 0 0 0 0 0 0 0 0 0 0 0 0 0 0 0 0 0 0 0
0 0 0 0 0 0 0 0 0 0 0 0 0 0 1 2 1 0 0 0 0 0 0 0 0 0 0 0 0 0 0 0 0 0 0 0 0 0 0 0 0 0 0
0 0 0 0 0 0 0 0 0 0 0 0 0 0 1 1 1 0 0 0 0 0 0 0 0 0 0 0 0 0 0 0 0 0 0 0 0 0 0 0 0 0 0
0 0 0 0 0 0 0 0 0 0 0 0 0 0 0 0 0 0 0 0 0 0 0 0 0 0 0 0 0 0 0 0 0 0 0 0 0 0 0 0 0 0 0
0 0 0 0 0 0 0 0 0 0 0 0 0 0 0 0 0 0 0 0 0 0 0 0 0 0 0 0 0 0 0 0 0 0 0 0 0 0 0 0 0 0 0
0 0 0 0 0 0 0 0 0 0 0 0 0 0 0 0 0 0 0 0 0 0 0 0 0 0 0 0 0 0 0 0 0 0 0 0 0 0 0 0 0 0 0
0 0 0 0 0 0 0 0 0 0 0 0 0 0 0 0 0 0 0 0 0 0 0 0 0 0 0 0 0 0 0 0 0 0 0 0 0 0 0 0 0 0 0
0 0 0 0 0 0 0 0 0 0 0 0 0 0 0 0 0 0 0 0 0 0 0 0 0 0 0 0 0 0 0 0 0 0 0 0 0 0 0 0 0 0 0
0 0 0 0 0 0 0 0 0 0 0 0 0 0 0 0 0 0 0 0 0 0 0 0 0 0 0 0 0 0 0 0 0 0 0 0 0 0 0 0 0 0 0
0 0 0 0 0 0 0 0 0 0 0 0 0 0 0 0 0 0 0 0 0 0 0 0 0 0 0 0 0 0 0 0 0 0 0 0 0 0 0 0 0 0 0
0 0 0 0 0 0 0 0 0 0 0 0 0 0 0 0 0 0 0 0 0 0 0 0 0 0 0 0 0 0 0 0 0 0 0 0 0 0 0 0 0 0 0
0 0 0 0 0 0 0 0 0 0 0 0 0 0 0 0 0 0 0 0 0 0 0 0 0 0 0 0 0 0 0 0 0 0 0 0 0 0 0 0 0 0 0
0 0 0 0 0 0 0 0 0 0 0 0 0 0 0 0 0 0 0 0 0 0 0 0 0 0 0 0 0 0 0 0 0 0 0 0 0 0 0 0 0 0 0
Wind_Speed
10 9 11 12 12 13 13 13 12 10 9 6 5 4 4 3 3 4 5 6 6 7 6 5 4 4 3 3 4 3 3 2 2 3 2 2 1 1 1 0 0 0 1
10 9 9 11 15 16 16 14 13 11 10 7 5 3 3 2 2 2 4 5 6 6 7 6 5 5 4 4 4 3 3 2 3 3 3 1 2 2 1 1 2 2 0
12 10 8 9 11 13 14 11 11 10 8 7 4 3 3 2 2 2 3 4 5 5 5 6 6 5 6 5 6 6 6 4 2 1 4 4 4 2 2 2 2 2 2
14 9 6 6 7 8 7 8 9 9 8 8 5 4 4 3 4 3 2 3 4 4 4 5 5 6 5 6 7 6 5 5 4 2 1 1 3 3 1 2 2 2 3
15 10 5 2 1 5 7 9 11 10 9 6 3 2 2 2 2 2 3 3 3 4 4 5 5 5 5 6 6 6 7 5 5 4 3 1 1 1 2 2 2 2 3
15 11 8 7 7 8 9 10 11 10 9 6 2 3 3 3 4 3 3 2 2 2 3 4 4 4 4 5 6 6 8 7 6 5 4 4 3 3 3 3 2 2 2
13 12 9 7 7 8 9 9 11 10 7 5 3 4 5 5 4 4 4 3 2 2 2 3 3 3 4 4 4 5 6 7 7 7 6 5 4 3 3 3 2 2 2
12 11 9 7 7 8 8 7 8 8 5 3 3 3 4 3 2 3 3 3 3 2 2 3 3 3 3 3 4 3 4 5 7 8 8 5 6 5 4 4 4 2 2
12 11 9 8 7 7 8 7 6 5 3 3 3 3 3 3 3 3 2 2 2 2 3 3 3 2 2 2 3 2 3 4 5 6 7 6 5 5 5 4 5 5 4
10 10 8 8 7 6 7 7 4 1 2 3 3 2 3 3 3 3 3 3 3 3 3 3 3 2 2 2 2 1 2 3 3 4 5 6 5 5 5 6 5 5 5
9 8 7 6 6 5 5 4 1 0 2 3 3 3 3 3 3 3 3 3 3 4 4 4 3 3 3 3 2 2 2 2 2 2 4 5 5 5 6 6 5 6 5
8 6 5 6 6 5 3 2 2 2 2 3 3 3 3 3 3 2 2 3 3 3 3 3 3 3 3 3 3 2 2 2 2 2 3 4 4 6 5 6 7 7 7
10 8 7 6 5 5 4 4 3 3 3 4 4 3 3 3 2 1 1 2 2 2 3 3 3 3 3 3 3 3 3 3 3 2 3 3 3 4 4 6 6 6 7
11 10 9 8 6 5 5 4 2 0 2 3 3 3 2 2 1 1 1 1 1 2 3 3 4 4 4 4 4 4 3 3 3 2 2 2 3 3 4 4 5 5 6
13 13 11 10 9 9 9 8 7 6 4 5 4 3 3 3 3 2 2 1 1 2 3 4 4 4 3 4 5 5 5 4 3 3 3 3 3 4 3 3 3 4 4
12 12 12 12 12 11 11 11 11 9 8 8 7 6 5 5 5 5 4 3 3 2 2 3 3 4 4 6 8 7 5 5 4 3 3 3 3 4 4 4 5 6 5
9 10 9 9 9 9 8 9 8 8 9 9 8 7 7 6 6 5 5 4 4 3 2 2 2 3 4 6 7 9 5 5 4 4 3 3 3 3 2 3 3 4 6
8 7 7 7 7 7 7 7 7 8 8 8 7 7 7 7 6 6 6 5 4 3 3 3 3 2 4 5 5 6 5 4 4 4 4 4 4 3 3 3 2 3 3
5 4 4 4 5 6 6 6 7 6 7 7 7 7 6 6 7 7 6 5 4 5 4 4 5 4 5 8 5 2 3 3 3 3 4 4 4 7 6 4 4 4 4
4 3 3 4 5 5 5 5 6 6 6 6 5 5 6 6 6 6 5 4 4 5 5 6 7 7 6 10 9 3 1 1 1 1 2 4 5 6 6 5 5 6 4
4 3 4 4 4 5 5 5 5 5 4 4 5 6 6 6 6 5 5 5 5 6 6 6 6 7 9 11 13 8 2 0 1 1 1 2 4 4 4 6 5 6 3
4 3 4 4 4 4 4 4 4 4 2 3 4 5 6 6 5 6 6 6 6 6 6 6 6 6 7 9 11 12 7 3 1 1 2 2 4 3 1 2 4 5 3
4 3 3 4 5 3 2 3 4 2 2 3 4 4 4 5 5 6 6 5 6 5 5 5 5 6 5 7 12 12 11 8 2 1 2 3 4 4 4 4 3 3 3
5 4 3 4 5 4 3 2 2 1 1 2 2 3 3 4 5 5 5 5 5 5 5 6 6 5 5 5 6 6 5 6 4 3 4 6 6 4 4 5 4 3 2
4 3 3 4 5 4 3 2 0 2 1 1 1 2 2 2 3 3 3 4 3 4 4 4 4 5 5 7 10 6 4 3 2 2 2 3 3 3 3 3 3 3 3
5 4 4 5 5 4 4 2 1 2 2 0 1 1 2 1 1 1 2 2 2 4 5 6 5 3 5 9 8 9 8 7 5 4 3 3 3 3 3 3 3 3 3
Wind_Direction
268 255 239 225 213 205 200 195 192 184 170 165 169 174 195 194 196 197 190 190 195 196 195 202 199 187 191 193 172 144 148 136 130 100 61 10 4 254 236 201 147 63 37
298 276 251 228 214 208 203 196 191 182 177 178 165 153 150 173 185 186 188 187 186 188 195 192 191 186 187 188 178 158 151 158 160 138 123 36 332 309 234 212 208 210 218
312 293 269 238 220 212 203 191 182 171 163 146 123 100 92 88 127 184 195 193 186 187 190 190 186 185 184 191 187 178 172 172 190 185 151 158 213 267 299 251 220 199 204
326 306 283 251 215 201 178 158 143 134 128 125 139 167 175 187 197 185 182 176 182 186 191 189 188 187 188 191 191 183 177 165 178 190 151 147 151 161 256 302 259 214 215
338 334 334 319 136 129 119 115 111 110 108 107 143 193 192 177 146 145 155 162 175 188 191 191 190 193 195 198 190 181 183 182 180 173 155 133 92 147 160 239 281 274 236
350 358 18 39 66 87 98 105 105 102 99 103 140 205 195 179 163 158 156 156 166 182 190 188 192 198 198 199 195 190 191 193 189 183 170 166 176 190 174 181 224 250 261
354 1 16 38 55 73 86 96 104 101 105 127 182 202 197 188 180 172 167 161 167 187 193 178 188 197 204 199 188 190 199 195 196 197 196 189 192 179 170 167 182 230 273
358 4 12 37 59 67 76 84 97 109 124 152 199 203 188 180 177 170 166 172 180 187 176 172 184 196 195 188 181 189 201 199 205 210 206 203 202 191 183 174 165 187 259
357 5 15 33 58 68 72 74 82 102 139 177 186 186 177 173 178 174 166 167 170 168 159 159 162 166 165 168 166 186 200 197 207 215 214 215 210 202 202 190 177 176 205
353 5 19 26 42 51 61 62 65 129 178 175 168 173 174 182 179 163 162 161 160 150 145 144 144 141 140 144 150 174 198 202 212 211 215 218 213 210 207 205 199 192 192
349 2 14 19 30 36 43 47 10 215 172 163 161 157 159 166 160 155 160 159 157 159 162 161 155 156 157 156 156 174 177 199 221 226 221 225 215 215 213 207 203 203 195
1 6 17 20 15 11 2 334 284 236 197 168 155 153 137 125 119 127 143 145 156 169 172 166 168 174 174 174 177 187 185 193 217 234 237 242 230 224 218 212 211 208 203
18 24 31 29 13 357 338 311 275 239 194 161 146 128 113 107 111 114 117 132 157 180 182 183 193 198 195 195 200 199 199 202 215 221 228 242 240 240 232 222 217 211 208
28 29 31 30 24 15 0 349 338 257 151 138 131 127 115 111 118 109 119 155 186 203 208 212 215 215 210 207 206 203 206 210 215 216 222 235 238 251 248 234 224 213 208
27 29 31 32 33 33 32 30 29 35 59 75 65 48 37 40 31 26 7 330 262 241 226 227 228 224 216 217 207 203 205 206 212 216 222 237 251 261 252 234 217 209 210
18 22 28 31 32 31 31 34 38 42 54 59 50 36 28 26 18 5 358 351 333 312 265 237 234 234 235 234 220 203 200 202 208 220 231 249 263 280 287 257 228 208 208
5 14 18 22 25 25 28 32 33 40 50 50 42 32 28 26 14 5 9 4 350 342 322 302 267 257 265 267 250 218 198 200 207 213 223 244 248 253 259 271 259 240 230
355 2 7 13 14 19 25 29 31 36 41 40 34 27 25 21 13 16 15 6 359 358 352 349 339 318 318 315 280 233 202 203 210 211 215 231 254 248 231 227 240 246 238
334 343 355 3 10 13 12 30 29 29 34 29 23 17 16 16 17 17 10 6 9 14 13 9 12 13 356 358 342 234 178 199 217 218 219 227 245 257 241 217 232 250 256
330 342 353 9 13 359 4 32 24 25 22 13 10 9 15 21 20 16 13 9 18 24 30 37 32 28 16 14 18 50 131 183 225 245 253 250 253 261 243 211 215 238 249
333 353 3 2 350 347 8 24 18 9 352 4 18 21 20 25 26 27 26 25 31 37 35 36 30 27 19 16 23 30 48 41 255 275 288 292 299 288 251 211 211 230 223
339 346 347 338 335 346 5 11 357 333 351 30 35 29 25 27 29 36 32 29 31 36 27 21 17 13 10 13 15 20 21 27 18 305 306 315 334 353 357 207 219 219 191
329 328 327 324 325 333 347 352 330 338 37 44 36 28 30 32 31 37 33 30 30 32 24 19 13 1 359 2 10 12 13 15 17 344 333 1 33 45 42 51 87 116 127
327 326 326 319 314 316 321 310 321 30 90 52 24 18 24 30 35 37 35 36 28 25 21 16 9 359 356 359 357 354 357 5 17 22 42 50 54 55 54 50 49 57 89
314 311 294 286 288 297 298 294 189 134 125 62 17 13 19 34 47 46 37 31 30 18 10 4 356 354 354 344 343 348 349 350 0 20 34 38 38 38 40 46 44 44 54
311 309 297 282 283 286 283 276 200 161 154 90 4 7 10 31 60 56 36 24 5 4 10 6 359 335 333 340 0 13 21 27 37 46 45 45 47 44 43 51 46 41 42